{"data":{"norad_id":46329,"epoch":"2026-05-24T15:41:16.793376Z","epoch_age_seconds":101671,"freshness":"FRESH","line1":"1 46329U 20062E   26144.65366659  .00084236  00000+0  71119-3 0  9991","line2":"2 46329  53.0435 325.1673 0002348 124.1379 235.9860 15.69081118316741","mean_motion":15.69081118,"eccentricity":0.0002348,"inclination_deg":53.0435,"raan_deg":325.1673,"arg_perigee_deg":124.1379,"mean_anomaly_deg":235.986,"bstar":0.00071119,"rev_number":31674,"period_min":91.773457948144,"perigee_km":359.94449792086,"apogee_km":363.10944412165,"semimajor_km":6739.6639710213,"source":"CELESTRAK","updated_at":"2026-05-25T13:38:16.470371Z"}}